Regional Weather Roundup
Issued by NWS

Home | Current Version | Previous Version | Text Only | Print | Product List | Glossary On
Versions: 1 2 3 4 5 6 7 8 9 10 11 12 13 14 15 16 17 18 19 20 21 22 23 24 25 26 27 28 29 30 31 32 33 34 35 36 37 38 39 40 41 42 43 44 45 46 47 48 49 50
000
ASUS45 KREV 281910
RWRNV
NEVADA REGIONAL WEATHER ROUNDUP
NATIONAL WEATHER SERVICE RENO NV
1200 PM PDT SUN AUG 28 2016

NOTE: "FAIR" INDICATES FEW OR NO CLOUDS BELOW 12,000 FEET WITH NO
SIGNIFICANT WEATHER AND/OR OBSTRUCTIONS TO VISIBILITY.

NVZ001-003-004-282000-
WESTERN NEVADA

CITY           SKY/WX    TMP DP  RH WIND       PRES   REMARKS
RENO           SUNNY     80  29  15 CALM      30.21F
CARSON CITY    FAIR      82  25  12 W3        30.23F
PYRAMID LAKE     N/A     75 N/A N/A N6          N/A
FALLON         SUNNY     86  37  17 VRB3      30.17F
LOVELOCK       SUNNY     87  32  14 VRB6      30.16F
$$

NVZ002-CAZ072-073-282000-
NORTHERN AND CENTRAL SIERRA

CITY           SKY/WX    TMP DP  RH WIND       PRES   REMARKS
S. LAKE TAHOE  SUNNY     76  41  28 VRB5      30.32S
SQUAW VLY 8000 NOT AVBL
MAMMOTH LAKES  FAIR      77  26  15 CALM      30.38S
BRIDGEPORT       N/A     81  21  11 S9G18     30.31F
$$

NVZ030-031-036-282000-
NORTHERN NEVADA

CITY           SKY/WX    TMP DP  RH WIND       PRES   REMARKS
ELKO           SUNNY     84  22  10 S7        30.21F
WINNEMUCCA     SUNNY     86  31  13 VRB7      30.18F
WENDOVER       SUNNY     81  36  19 E7        30.17F
$$

NVZ035-037-282000-
CENTRAL NEVADA

CITY           SKY/WX    TMP DP  RH WIND       PRES   REMARKS
ELY            SUNNY     82  29  14 NE12G17   30.29F
EUREKA           N/A     83  23  11 VRB7      30.27F
$$

NVZ013-014-282000-
SOUTH CENTRAL NEVADA

CITY           SKY/WX    TMP DP  RH WIND       PRES   REMARKS
TONOPAH        SUNNY     85  22  10 NE3       30.25F
$$

NVZ017-020-022-282000-
SOUTHERN NEVADA

CITY           SKY/WX    TMP DP  RH WIND       PRES   REMARKS
LAS VEGAS      MOSUNNY   87  46  24 VRB5      30.05F
N. LAS VEGAS   SUNNY     86  51  29 E5        30.07F
NELLIS AFB     SUNNY     87  53  30 SE3       30.05F
HENDERSON      SUNNY     87  52  29 VRB3      30.11F
MERCURY        SUNNY     88  46  23 S7        30.11F
$$



USA.gov is the U.S. government's official web portal to all federal, state and local government web resources and services.